• In Belarus
  • List of Countries
  • For 7 days
  • Water Temperature
  • Satellite Maps
  • Weather Map
  • Weather Widgets
  • user-avatar
    Login

    Hourly Weather Rawson

    Today, 15 August, Wednesday

    Time Temperature Precipitation Wind Pressure Humidity
    00:00 +8°C° 0 mm 5 mps 762 mmHg 36%
    01:00 +8°C° 0 mm 4 mps 762 mmHg 35%
    02:00 +8°C° 0 mm 4 mps 762 mmHg 35%
    03:00 +8°C° 0 mm 4 mps 762 mmHg 37%
    04:00 +8°C° 0 mm 4 mps 761 mmHg 39%
    05:00 +8°C° 0 mm 4 mps 761 mmHg 40%
    06:00 +8°C° 0 mm 4 mps 761 mmHg 41%
    07:00 +8°C° 0 mm 4 mps 761 mmHg 42%
    08:00 +8°C° 0 mm 4 mps 761 mmHg 43%
    09:00 +11°C° 0 mm 4 mps 761 mmHg 38%
    10:00 +13°C° 0 mm 4 mps 761 mmHg 34%
    11:00 +15°C° 0 mm 5 mps 761 mmHg 29%
    12:00 +16°C° 0 mm 5 mps 760 mmHg 27%
    13:00 +17°C° 0 mm 5 mps 759 mmHg 25%
    14:00 +20°C° 0 mm 5 mps 759 mmHg 23%
    15:00 +20°C° 0 mm 5 mps 758 mmHg 25%
    16:00 +19°C° 0 mm 5 mps 758 mmHg 27%
    17:00 +19°C° 0 mm 4 mps 757 mmHg 29%
    18:00 +17°C° 0 mm 5 mps 757 mmHg 30%
    19:00 +16°C° 0 mm 6 mps 757 mmHg 32%
    20:00 +16°C° 0 mm 6 mps 757 mmHg 34%
    21:00 +15°C° 0 mm 7 mps 757 mmHg 35%
    22:00 +15°C° 0 mm 7 mps 757 mmHg 36%
    23:00 +14°C° 0 mm 7 mps 757 mmHg 37%

    Tomorrow, 16 August, Thursday

    Time Temperature Precipitation Wind Pressure Humidity
    00:00 +14°C° 0 mm 7 mps 756 mmHg 39%
    01:00 +12°C° 0 mm 7 mps 756 mmHg 40%
    02:00 +13°C° 0 mm 6 mps 756 mmHg 42%
    03:00 +13°C° 0 mm 6 mps 756 mmHg 40%
    04:00 +13°C° 0 mm 6 mps 755 mmHg 38%
    05:00 +13°C° 0 mm 6 mps 755 mmHg 36%
    06:00 +13°C° 0 mm 6 mps 755 mmHg 34%
    07:00 +13°C° 0 mm 6 mps 755 mmHg 31%
    08:00 +13°C° 0 mm 6 mps 755 mmHg 28%
    09:00 +14°C° 0 mm 6 mps 756 mmHg 25%
    10:00 +16°C° 0 mm 6 mps 756 mmHg 23%
    11:00 +17°C° 0 mm 6 mps 756 mmHg 20%
    12:00 +20°C° 0 mm 6 mps 756 mmHg 18%
    13:00 +21°C° 0 mm 6 mps 756 mmHg 16%
    14:00 +22°C° 0 mm 6 mps 756 mmHg 14%
    15:00 +21°C° 0 mm 5 mps 756 mmHg 17%
    16:00 +20°C° 0 mm 4 mps 756 mmHg 20%
    17:00 +19°C° 0 mm 3 mps 756 mmHg 23%
    18:00 +18°C° 0 mm 3 mps 757 mmHg 26%
    19:00 +17°C° 0 mm 3 mps 757 mmHg 30%
    20:00 +16°C° 0 mm 3 mps 757 mmHg 33%
    21:00 +16°C° 0 mm 3 mps 758 mmHg 37%
    22:00 +15°C° 0 mm 4 mps 758 mmHg 41%
    23:00 +14°C° 0 mm 4 mps 758 mmHg 45%

    Day after tomorrow, 17 August, Friday

    Time Temperature Precipitation Wind Pressure Humidity
    00:00 +14°C° 0 mm 4 mps 758 mmHg 49%
    01:00 +14°C° 0 mm 4 mps 758 mmHg 53%
    02:00 +13°C° 0 mm 4 mps 758 mmHg 57%
    03:00 +13°C° 0 mm 4 mps 758 mmHg 58%
    04:00 +12°C° 0 mm 4 mps 758 mmHg 59%
    05:00 +12°C° 0 mm 4 mps 758 mmHg 59%
    06:00 +12°C° 0 mm 4 mps 758 mmHg 58%
    07:00 +12°C° 0 mm 4 mps 758 mmHg 57%
    08:00 +12°C° 0 mm 4 mps 758 mmHg 56%
    09:00 +13°C° 0 mm 4 mps 758 mmHg 53%
    10:00 +14°C° 0 mm 4 mps 758 mmHg 50%
    11:00 +15°C° 0 mm 4 mps 758 mmHg 46%
    12:00 +17°C° 0 mm 4 mps 758 mmHg 43%
    13:00 +18°C° 0 mm 4 mps 757 mmHg 39%
    14:00 +19°C° 0 mm 4 mps 756 mmHg 36%
    15:00 +18°C° 0 mm 4 mps 756 mmHg 36%
    16:00 +18°C° 0 mm 3 mps 756 mmHg 37%
    17:00 +18°C° 0 mm 2 mps 755 mmHg 37%
    18:00 +17°C° 0 mm 3 mps 756 mmHg 39%
    19:00 +16°C° 0 mm 3 mps 756 mmHg 41%
    20:00 +15°C° 0 mm 4 mps 756 mmHg 44%
    21:00 +14°C° 0 mm 5 mps 756 mmHg 43%
    22:00 +13°C° 0 mm 6 mps 757 mmHg 42%
    23:00 +11°C° 0 mm 8 mps 757 mmHg 41%

    18 August, Saturday

    Time Temperature Precipitation Wind Pressure Humidity
    00:00 +10°C° 0 mm 8 mps 758 mmHg 40%
    01:00 +9°C° 0 mm 8 mps 759 mmHg 38%
    02:00 +6°C° 0 mm 9 mps 759 mmHg 37%
    03:00 +6°C° 0 mm 8 mps 760 mmHg 37%
    04:00 +5°C° 0 mm 8 mps 760 mmHg 37%
    05:00 +5°C° 0 mm 8 mps 761 mmHg 38%
    06:00 +4°C° 0 mm 8 mps 761 mmHg 39%
    07:00 +4°C° 0 mm 8 mps 762 mmHg 40%
    08:00 +4°C° 0 mm 8 mps 762 mmHg 41%
    09:00 +5°C° 0 mm 10 mps 763 mmHg 37%
    10:00 +7°C° 0 mm 13 mps 763 mmHg 34%
    11:00 +8°C° 0 mm 15 mps 764 mmHg 30%
    12:00 +8°C° 0 mm 14 mps 764 mmHg 29%
    13:00 +8°C° 0 mm 13 mps 764 mmHg 29%
    14:00 +8°C° 0 mm 12 mps 765 mmHg 28%
    15:00 +7°C° 0 mm 11 mps 766 mmHg 28%
    16:00 +7°C° 0 mm 10 mps 766 mmHg 28%
    17:00 +7°C° 0 mm 10 mps 767 mmHg 28%
    18:00 +6°C° 0 mm 8 mps 768 mmHg 30%
    19:00 +5°C° 0 mm 7 mps 769 mmHg 32%
    20:00 +5°C° 0 mm 6 mps 770 mmHg 35%
    21:00 +5°C° 0 mm 5 mps 771 mmHg 36%
    22:00 +5°C° 0 mm 5 mps 771 mmHg 37%
    23:00 +4°C° 0 mm 4 mps 772 mmHg 39%

    19 August, Sunday

    Time Temperature Precipitation Wind Pressure Humidity
    00:00 +4°C° 0 mm 4 mps 772 mmHg 42%
    01:00 +4°C° 0 mm 4 mps 772 mmHg 44%
    02:00 +3°C° 0 mm 4 mps 773 mmHg 47%
    03:00 +2°C° 0 mm 5 mps 773 mmHg 50%
    04:00 +2°C° 0 mm 5 mps 773 mmHg 53%
    05:00 +1°C° 0 mm 5 mps 773 mmHg 56%
    06:00 +1°C° 0 mm 5 mps 773 mmHg 56%
    07:00 +1°C° 0 mm 5 mps 773 mmHg 56%
    08:00 +1°C° 0 mm 5 mps 773 mmHg 56%
    09:00 +3°C° 0 mm 5 mps 773 mmHg 49%
    10:00 +6°C° 0 mm 5 mps 773 mmHg 42%
    11:00 +8°C° 0 mm 6 mps 773 mmHg 35%
    12:00 +9°C° 0 mm 6 mps 772 mmHg 31%
    13:00 +11°C° 0 mm 6 mps 772 mmHg 27%
    14:00 +13°C° 0 mm 6 mps 771 mmHg 23%
    15:00 +13°C° 0 mm 5 mps 771 mmHg 24%
    16:00 +13°C° 0 mm 4 mps 770 mmHg 24%
    17:00 +13°C° 0 mm 3 mps 770 mmHg 24%
    18:00 +12°C° 0 mm 4 mps 770 mmHg 27%
    19:00 +10°C° 0 mm 5 mps 770 mmHg 29%
    20:00 +9°C° 0 mm 5 mps 770 mmHg 32%
    21:00 +9°C° 0 mm 6 mps 769 mmHg 34%
    22:00 +9°C° 0 mm 8 mps 769 mmHg 36%
    23:00 +7°C° 0 mm 9 mps 769 mmHg 38%

    20 August, Monday

    Time Temperature Precipitation Wind Pressure Humidity
    00:00 +7°C° 0 mm 9 mps 768 mmHg 40%
    01:00 +7°C° 0 mm 10 mps 768 mmHg 41%
    02:00 +7°C° 0 mm 10 mps 768 mmHg 42%
    03:00 +7°C° 0 mm 11 mps 767 mmHg 41%
    04:00 +6°C° 0 mm 11 mps 766 mmHg 41%
    05:00 +6°C° 0 mm 11 mps 766 mmHg 41%
    06:00 +5°C° 0 mm 12 mps 766 mmHg 40%
    07:00 +5°C° 0 mm 12 mps 765 mmHg 40%
    08:00 +5°C° 0 mm 12 mps 765 mmHg 40%
    09:00 +8°C° 0 mm 12 mps 764 mmHg 36%
    10:00 +10°C° 0 mm 13 mps 764 mmHg 31%
    11:00 +14°C° 0 mm 13 mps 763 mmHg 27%
    12:00 +15°C° 0 mm 13 mps 762 mmHg 25%
    13:00 +17°C° 0 mm 13 mps 761 mmHg 22%
    14:00 +19°C° 0 mm 13 mps 761 mmHg 20%
    15:00 +18°C° 0 mm 12 mps 760 mmHg 21%
    16:00 +18°C° 0 mm 12 mps 760 mmHg 22%
    17:00 +17°C° 0 mm 12 mps 759 mmHg 23%
    18:00 +15°C° 0 mm 12 mps 759 mmHg 27%
    19:00 +14°C° 0 mm 12 mps 759 mmHg 30%
    20:00 +12°C° 0 mm 12 mps 759 mmHg 34%
    21:00 +12°C° 0 mm 12 mps 759 mmHg 36%
    22:00 +11°C° 0 mm 11 mps 759 mmHg 38%
    23:00 +11°C° 0 mm 11 mps 759 mmHg 40%
    Show more